Volver al catálogo

STARLINK-36669

ActivoComunicacionesSSO
NORAD 68675·PAYLOAD·🇺🇸 United States

Lanzado Apr 11, 2026 desde Vandenberg Space Force Base

Loading…

Próximos Pases (próximas 24 horas)

TLE

ActualizadoSource: CelesTrak SupGP

Época: Sep 14, 2026, 21:31 UTC

1 68675C 26077P   26257.89701389  .00012012  00000+0  37302-3 0  2571
2 68675  97.2847 127.8774 0001970  94.3660 304.0060 15.33418954    19

Sigue STARLINK-36669 en tiempo real con AllMySat

Download on the App Store